Regional Weather Roundup
Issued by NWS Burlington, VT

Home | Current Version | Previous Version | Text Only | Print | Product List | Glossary On
Versions: 1 2 3 4 5 6 7 8 9 10 11 12 13 14 15 16 17 18 19 20 21 22 23 24 25 26 27 28 29 30 31 32 33 34 35 36 37 38 39 40 41 42 43 44 45 46 47 48 49 50
000
ASUS41 KBTV 252210
RWRBTV
VERMONT REGIONAL WEATHER ROUNDUP
NATIONAL WEATHER SERVICE BURLINGTON VT
600 PM EDT SAT APR 25 2015

NOTE: "FAIR" INDICATES FEW OR NO CLOUDS BELOW 12,000 FEET WITH NO
SIGNIFICANT WEATHER AND/OR OBSTRUCTIONS TO VISIBILITY.

* THESE REPORTS ARE NOT UNDER NWS QUALITY CONTROL AND/OR DO NOT
  REPORT WEATHER SUCH AS PRECIPITATION AND FOG.

VTZ001>019-252300-
_____VERMONT_____


CITY           SKY/WX    TMP DP  RH WIND       PRES   REMARKS
BURLINGTON     CLOUDY    49  28  44 NW8       29.75S
MONTPELIER     CLOUDY    40  28  62 E6        29.77R
MORRISVILLE    CLOUDY    42  29  59 CALM      29.76S
ST. JOHNSBURY*   N/A     43  29  57 MISG      29.73S
LYNDONVILLE*   CLOUDY    40  29  64 W8        29.75S
MIDDLEBURY*    CLOUDY    47  28  48 N7        29.74S
RUTLAND*       CLOUDY   N/A N/A N/A N9G16     29.72R
SPRINGFIELD    CLOUDY    50  25  37 NW7       29.71R
HIGHGATE*      CLOUDY    46  31  55 CALM      29.74S
NEWPORT*       CLOUDY    39  31  75 SW5       29.74S
BENNINGTON     CLOUDY    51  27  39 NW8       29.71R

_____LAKE CHAMPLAIN_____


CITY           SKY/WX    TMP DP  RH WIND       PRES   REMARKS

$$

NYZ007-026>031-035-052-083-252300-
_____NORTHERN NEW YORK_____


CITY           SKY/WX    TMP DP  RH WIND       PRES   REMARKS
PLATTSBURGH    CLOUDY    47  30  51 SE5       29.74F
SARANAC LAKE   CLOUDY    43  28  55 VRB6      29.72S
MASSENA        CLOUDY    50  31  48 W9        29.78S
OGDENSBURG*    CLOUDY    50  32  50 N7        29.78S
POTSDAM*       CLOUDY    48  34  57 NW5       29.78S
WATERTOWN      CLEAR     44  29  55 W12       29.81F
FT DRUM        PTCLDY    45  29  53 W7        29.78S
ALBANY         MOCLDY    54  28  36 W13       29.72S
GLENS FALLS    PTCLDY    54  27  35 N15       29.73R

$$
NHZ002-005-011-252300-
_____NEW HAMPSHIRE_____


CITY           SKY/WX    TMP DP  RH WIND       PRES   REMARKS
LEBANON        CLOUDY    47  28  47 N12       29.72R
KEENE          MOCLDY    52  27  37 N10       29.70S
MT WASHINGTON  SNOW      16  16 100 N36         N/A  VSB 0   WCI  -6
PLYMOUTH       CLOUDY    45  33  64 NW12      29.73R
WHITEFIELD     CLOUDY    41  28  60 N7        29.73S

$$

_____REGIONAL QUEBEC LOCATIONS_____


CITY           SKY/WX    TMP DP  RH WIND       PRES   REMARKS
MONTREAL       MOCLDY    52  30  43 NW7       29.72S
QUEBEC CITY    MOCLDY    45  34  65 VRB3      29.71F
SHERBROOKE     LGT RAIN  39  34  81 VRB2      29.71S

_____REGIONAL ONTARIO LOCATIONS_____


CITY           SKY/WX    TMP DP  RH WIND       PRES   REMARKS
OTTAWA         MOCLDY    50  30  46 N13       29.77S

______KEY______
VSB  - VISIBILITY IN MILES
WCI  - WIND CHILL INDEX
HX   - HEAT INDEX
$$
NNNN


USA.gov is the U.S. government's official web portal to all federal, state and local government web resources and services.